Location: *
(46.1200°N, 11.2700°E)
Time: 15:54:42
(UTC+00:00)

H-2A R/B - Pass Details

Date: 02 March 2021
Orbit: 732 x 837 km, 98.2° (Epoch: 19 April)

Event Time Altitude Azimuth Distance (km) Brightness Sun altitude
Rises 18:31:22 0° 186° (S) 3,360 5.3 -16.1°
Reaches altitude 10° 18:33:50 10° 193° (SSW) 2,438 4.7 -16.5°
Maximum altitude 18:38:56 41° 263° (W) 1,198 3.5 -17.4°
Drops below altitude 10° 18:44:06 10° 333° (NNW) 2,458 5.1 -18.3°
Sets 18:46:37 0° 341° (NNW) 3,391 5.7 -18.7°
